This demonstration page uses our WeatherBlox Daily Observations layout. Learn more.

Left ArrowRight Arrow

34.16533, -84.80231

Hourly Observations for September 26, 2022

Temp ( °F °C ) Dew Point ( °F °C ) Humidity (%) Winds ( mph kmh ) Pressure ( in mb ) Visibility ( mi km ) Precip ( " mm )
12:15 am 00:15 Mostly Cloudy 64 18 64 18 100 100 Calm 29.92 1013 9 14 0.00 0.00
12:35 am 00:35 Partly Cloudy 64 18 64 18 100 100 Calm 29.92 1013 9 14 0.00 0.00
12:55 am 00:55 Partly Cloudy 64 18 63 17 94 94 Calm 29.92 1013 10 16 0.00 0.00
1:15 am 01:15 Mostly Cloudy 64 18 63 17 94 94 Calm 29.92 1013 9 14 0.00 0.00
1:35 am 01:35 Mostly Clear 64 18 63 17 94 94 Calm 29.92 1013 10 16 0.00 0.00
1:55 am 01:55 Partly Cloudy 64 18 63 17 94 94 Calm 29.92 1013 8 13 0.00 0.00
2:15 am 02:15 Partly Cloudy 64 18 63 17 94 94 Calm 29.92 1013 10 16 0.00 0.00
2:35 am 02:35 Partly Cloudy 64 18 63 17 94 94 Calm 29.93 1014 9 14 0.00 0.00
2:55 am 02:55 Mostly Clear 63 17 61 16 94 94 Calm 29.92 1013 9 14 0.00 0.00
3:15 am 03:15 Mostly Clear 63 17 63 17 100 100 Calm 29.92 1013 9 14 0.00 0.00
3:35 am 03:35 Mostly Clear 63 17 63 17 100 100 Calm 29.92 1013 8 13 0.00 0.00
3:55 am 03:55 Mostly Clear 63 17 63 17 100 100 Calm 29.92 1013 8 13 0.00 0.00
4:15 am 04:15 Clear 63 17 61 16 94 94 Calm 29.92 1013 9 14 0.00 0.00
4:35 am 04:35 Clear 63 17 63 17 100 100 Calm 29.92 1013 9 14 0.00 0.00
4:55 am 04:55 Clear with Mist and Fog 61 16 61 16 100 100 Calm 29.92 1013 6 10 0.00 0.00
5:15 am 05:15 Clear 63 17 61 16 94 94 Calm 29.92 1013 9 14 0.00 0.00
5:35 am 05:35 Clear with Mist and Fog 61 16 61 16 100 100 Calm 29.92 1013 5 8 0.00 0.00
5:55 am 05:55 Mostly Clear 61 16 61 16 100 100 Calm 29.93 1014 9 14 0.00 0.00
6:15 am 06:15 Partly Cloudy with Mist and Fog 61 16 61 16 100 100 Calm 29.93 1014 1 1 0.00 0.00
6:35 am 06:35 Mostly Clear with Fog 59 15 59 15 100 100 Calm 29.94 1014 1 1 0.00 0.00
6:55 am 06:55 Partly Cloudy with Mist and Fog 59 15 59 15 100 100 Calm 29.95 1014 6 10 0.00 0.00
7:15 am 07:15 Mostly Cloudy with Fog 59 15 59 15 100 100 Calm 29.95 1014 0 0 0.00 0.00
7:35 am 07:35 Mostly Cloudy with Mist and Fog 59 15 59 15 100 100 Calm 29.95 1014 6 10 0.00 0.00
7:55 am 07:55 Cloudy with Mist and Fog 59 15 59 15 100 100 Calm 29.97 1015 1 2 0.00 0.00
8:15 am 08:15 Cloudy with Fog 59 15 59 15 100 100 Calm 29.98 1015 0 0 0.00 0.00
8:35 am 08:35 Cloudy with Fog 59 15 59 15 100 100 Calm 29.98 1015 0 0 0.00 0.00
8:55 am 08:55 Mostly Sunny 61 16 61 16 100 100 Calm 29.98 1015 8 13 0.00 0.00
9:15 am 09:15 Sunny 63 17 63 17 100 100 Calm 29.98 1015 8 13 0.00 0.00
9:35 am 09:35 Sunny 64 18 63 17 94 94 Calm 29.98 1015 10 16 0.00 0.00
9:55 am 09:55 Sunny 66 19 63 17 88 88 Calm 29.99 1015 10 16 0.00 0.00
10:15 am 10:15 Sunny 68 20 63 17 83 83 Calm 29.98 1015 10 16 0.00 0.00
10:35 am 10:35 Sunny 70 21 61 16 73 73 SSE 3 6 29.98 1015 10 16 0.00 0.00
10:55 am 10:55 Sunny 72 22 57 14 60 60 Calm 29.99 1015 10 16 0.00 0.00
11:15 am 11:15 Sunny 72 22 54 12 53 53 VRB 6 9 29.99 1015 10 16 0.00 0.00
11:35 am 11:35 Sunny 73 23 50 10 44 44 SSW 8 13 29.98 1015 10 16 0.00 0.00
11:55 am 11:55 Sunny 75 24 45 7 34 34 SSW 9 15 29.97 1015 10 16 0.00 0.00
12:15 pm 12:15 Sunny 75 24 45 7 34 34 SSW 8 13 29.96 1015 10 16 0.00 0.00
12:35 pm 12:35 Sunny 75 24 45 7 34 34 VRB 7 11 29.95 1014 10 16 0.00 0.00
12:55 pm 12:55 Sunny 77 25 46 8 34 34 VRB 6 9 29.95 1014 10 16 0.00 0.00
1:15 pm 13:15 Sunny 77 25 45 7 32 32 S 10 17 29.94 1014 10 16 0.00 0.00
1:35 pm 13:35 Sunny 77 25 45 7 32 32 S 15 24 29.93 1013 10 16 0.00 0.00
1:55 pm 13:55 Sunny 77 25 45 7 32 32 S 9 15 29.93 1013 10 16 0.00 0.00
2:15 pm 14:15 Sunny 79 26 46 8 32 32 S 10 17 29.92 1013 10 16 0.00 0.00
2:35 pm 14:35 Sunny 77 25 46 8 34 34 VRB 6 9 29.91 1013 10 16 0.00 0.00
2:55 pm 14:55 Sunny 77 25 46 8 34 34 S 9 15 29.90 1012 10 16 0.00 0.00
3:15 pm 15:15 Sunny 79 26 46 8 32 32 NW 8 13 29.90 1012 10 16 0.00 0.00
3:35 pm 15:35 Sunny 79 26 46 8 32 32 VRB 6 9 29.89 1012 10 16 0.00 0.00
3:55 pm 15:55 Sunny 79 26 46 8 32 32 W 10 17 29.88 1012 10 16 0.00 0.00
4:15 pm 16:15 Sunny 79 26 45 7 30 30 WSW 14 22 29.89 1012 10 16 0.00 0.00
4:35 pm 16:35 Sunny 79 26 43 6 28 28 SE 9 15 29.89 1012 10 16 0.00 0.00
4:55 pm 16:55 Sunny 79 26 45 7 30 30 WNW 12 19 29.89 1012 10 16 0.00 0.00
5:15 pm 17:15 Sunny 79 26 46 8 32 32 W 9 15 29.89 1012 10 16 0.00 0.00
5:35 pm 17:35 Sunny 79 26 48 9 34 34 VRB 6 9 29.89 1012 10 16 0.00 0.00
5:55 pm 17:55 Sunny 79 26 48 9 34 34 WNW 8 13 29.89 1012 10 16 0.00 0.00
6:15 pm 18:15 Sunny 77 25 48 9 36 36 VRB 6 9 29.90 1012 10 16 0.00 0.00
6:35 pm 18:35 Sunny 77 25 48 9 36 36 VRB 5 7 29.90 1012 10 16 0.00 0.00
6:55 pm 18:55 Sunny 75 24 48 9 38 38 Calm 29.90 1013 10 16 0.00 0.00
7:15 pm 19:15 Sunny 73 23 50 10 44 44 Calm 29.92 1013 10 16 0.00 0.00
7:35 pm 19:35 Clear 72 22 50 10 46 46 Calm 29.92 1013 10 16 0.00 0.00
7:55 pm 19:55 Clear 72 22 50 10 46 46 Calm 29.92 1013 10 16 0.00 0.00
8:15 pm 20:15 Clear 70 21 50 10 49 49 Calm 29.93 1014 10 16 0.00 0.00
8:35 pm 20:35 Clear 68 20 52 11 56 56 Calm 29.93 1014 10 16 0.00 0.00
8:55 pm 20:55 Clear 68 20 50 10 53 53 Calm 29.94 1014 10 16 0.00 0.00
9:15 pm 21:15 Clear 66 19 50 10 56 56 Calm 29.96 1014 10 16 0.00 0.00
9:35 pm 21:35 Clear 66 19 50 10 56 56 Calm 29.96 1015 10 16 0.00 0.00
9:55 pm 21:55 Clear 64 18 50 10 59 59 Calm 29.98 1015 10 16 0.00 0.00
10:15 pm 22:15 Clear 63 17 52 11 68 68 Calm 29.99 1016 10 16 0.00 0.00
10:35 pm 22:35 Mostly Clear 63 17 52 11 68 68 Calm 29.99 1016 10 16 0.00 0.00
10:55 pm 22:55 Mostly Clear 61 16 52 11 72 72 Calm 30.00 1016 10 16 0.00 0.00
11:15 pm 23:15 Mostly Clear 59 15 52 11 77 77 Calm 30.00 1016 10 16 0.00 0.00
11:35 pm 23:35 Mostly Clear 57 14 52 11 82 82 Calm 30.01 1016 10 16 0.00 0.00
11:55 pm 23:55 Clear 59 15 52 11 77 77 Calm 30.02 1016 10 16 0.00 0.00

Powered by AerisWeather